Location: Wawayanda State Park
(41.1833°N, 74.4333°W)
Time: 16:57:21
(UTC-04:00)

Landsat 7 - Visible Passes

Search period start: 19 April 2014 00:00
Search period end: 29 April 2014 00:00
Orbit: 702 x 703 km, 98.2° (Epoch: 19 April)

Date Brightness Start Highest point End Pass type
(mag) Time Alt. Az. Time Alt. Az. Time Alt. Az.
19 Apr 5.1 21:41:29 25° ENE 21:41:31 25° ENE 21:45:23 10° NNE visible
19 Apr 5.5 23:20:22 29° WNW 23:20:22 29° WNW 23:23:26 10° NNW visible
20 Apr 4.1 22:24:41 58° NNE 22:24:41 58° NNE 22:28:47 10° N visible
21 Apr 6.5 00:03:34 12° WNW 00:03:34 12° WNW 00:04:23 10° WNW visible
21 Apr 5.4 21:29:00 19° ENE 21:29:28 20° ENE 21:32:50 10° NNE visible
21 Apr 5.0 23:07:53 40° WNW 23:07:53 40° WNW 23:11:26 10° NNW visible
22 Apr 4.2 22:12:11 48° ENE 22:12:11 48° ENE 22:16:30 10° N visible
22 Apr 6.2 23:51:04 16° WNW 23:51:04 16° WNW 23:53:03 10° NW visible
23 Apr 5.6 21:16:30 15° ENE 21:17:26 15° ENE 21:20:08 10° NNE visible
23 Apr 4.4 22:55:23 54° WNW 22:55:23 54° WNW 22:59:22 10° NNW visible
24 Apr 4.5 21:59:42 37° ENE 21:59:49 37° ENE 22:04:11 10° N visible
24 Apr 5.8 23:38:35 21° WNW 23:38:35 21° WNW 23:41:23 10° NW visible
25 Apr 5.9 21:04:01 10° ENE 21:05:25 12° ENE 21:07:02 10° NE visible
25 Apr 3.9 22:42:54 72° NW 22:42:54 72° NW 22:47:15 10° NNW visible
26 Apr 4.9 21:47:14 28° E 21:47:44 29° ENE 21:51:47 10° N visible
26 Apr 5.4 23:26:06 29° W 23:26:06 29° W 23:29:33 10° NW visible
27 Apr 3.7 22:30:26 75° ENE 22:30:26 75° ENE 22:35:04 10° N visible
28 Apr 6.5 00:09:19 11° W 00:09:19 11° W 00:09:50 10° WNW visible
28 Apr 5.2 21:34:45 21° E 21:35:40 22° ENE 21:39:18 10° NNE visible
28 Apr 4.9 23:13:38 38° W 23:13:38 38° W 23:17:37 10° NNW visible
